Jilin-1 GaoFen 06A 27 xing

operational
NORAD ID: 57038 Int'l Des: NNA 2023-085 Owner: CGSTL Country: CN Constellation: jilin-1
LEOCIRCULARRETROGRADESSO

About Jilin-1 GaoFen 06A 27 xing

Description loading...

Live Position

Loading 3D Globe...

Upcoming Passes

Altitude History

Altitude vs Time

uPlot chart will show altitude changes over time

Two-Line Element Set

1 57038U 23085AL 25298.54454615 .00019622 00000-0 75474-3 0 9991
2 57038 97.4858 43.7812 0008140 184.0776 176.0397 15.26407945130850
Epoch: Oct 25, 2025 • Age: 8 hours

Current Status

Altitude 493.7 km
Velocity 7.63 km/s
Sub-Earth Point 58.03°N, 120.29°W
Launch Date Jun 15, 2023
Age 2.3 years
Type other

Technical Details

Classification Payload
Mass 42.00 kg
Dry Mass 42.00 kg
Total Mass 42.00 kg
Length 1.50 m
Diameter 1.00 m
Span 1.50 m
Shape Box
Manufacturer CGSTL
Bus Type JL-1
Phase Status In Orbit
Owner/State CGSTL/CN

Large Constellations

Loading constellations...